星链-36472(STARLINK-36472)

导读

STARLINK-36472是美国SpaceX公司星链(Starlink)星座的一员,于2026年1月9日发射升空。星链项目旨在通过近地轨道卫星星座,为全球提供高速互联网接入服务,尤其覆盖偏远、网络基础设施匮乏地区。作为大规模星座部署的最新成员,该卫星延续星链设计,运行在近地轨道,助力SpaceX持续扩展全球卫星互联网覆盖范围,进一步巩固星链在全球低轨卫星通信领域的领先地位。

基本信息
目录编号:
67346
目录名称:
STARLINK-36472
国际标识:
2026-003N
轨道中心:
EARTH
卫星名称:
星链-36472
卫星全名:
星链-36472(STARLINK-36472)
卫星状态:
在轨 (已飞行155 天)
发射日期:
2026-01-09 UTC
国别 :
美国 (US)
星等 :
--
轨道信息
数据来源 国际轨道数据
星历时间: 2026-06-12T07:51:41+0800
1天前
查看轨道信息
半长轴: 6861.127km
偏心率: 0.0000572
轨道倾角: 43.005°
近地点辐角 254.531°
升交点赤经 54.742°
平近点角 105.548°
近地点: 482.597km
远地点: 483.383km
周期: 94.266分钟
每日圈数: 15.275999
详细信息
固有亮度:
5
最大亮度:
2.5
卫星平台:
Starlink V1.0
覆盖范围:
全球
运营商:
太空探索技术公司
运营商所在国:
美国
制造商(研发单位):
太空探索技术公司
制造商所在国:
美国
使用方式:
暂无
卫星简介
Starlink 计划是 SpaceX 推出的全球卫星互联网项目,通过发射低轨道卫星,为全球尤其是偏远地区提供高速、低延迟的互联网服务。自 2019 年起,Starlink 已部署数千颗卫星,旨在缩小全球数字鸿沟,推动互联网普及。该项目还为军事、航空等行业提供通信支持,带来广泛经济效益。
2D轨道图
3D轨道图
轨道高度分析图
轨道倾角分析图
轨道综合分析图
查看轨道综合分析图